Location: Franzen
(48.6167°N, 15.3833°E)
Time: 16:31:55
(UTC+00:00)

A-11 Canister half - Pass Details

Date: 01 August 2021
Orbit: 1515 x 1685 km, 47.2° (Epoch: 19 September)

Event Time Altitude Azimuth Distance (km) Brightness Sun altitude
Rises 16:50:06 0° 242° (WSW) 4,793 12.5 15.7°
Reaches altitude 10° 16:53:10 10° 240° (WSW) 3,831 12.0 15.2°
Maximum altitude 17:02:54 70° 159° (SSE) 1,739 9.4 13.6°
Drops below altitude 10° 17:12:57 10° 79° (E) 3,945 10.6 12.0°
Sets 17:16:09 0° 78° (ENE) 4,941 11.1 11.5°
